Location: K?s?ram
(16.8935°N, 80.5866°E)
Time: 22:43:12
(UTC+00:00)

Daily predictions for brighter satellites

Satellite Brightness Start Highest point End
(mag) Time Altitude Azimuth Time Altitude Azimuth Time Altitude Azimuth
Centaur Rocket 3.9 13:24:22 10° WSW 13:28:04 73° SSE 13:39:36 10° E
Okean 1-7 3.2 13:30:25 10° S 13:34:44 83° W 13:39:07 10° N
MOS 1-B Rocket 4.2 13:30:29 10° NNE 13:35:59 49° ESE 13:42:02 10° S
Palapa B4 Rocket 4.3 13:31:27 10° W 13:36:46 71° N 13:45:36 10° E
Cosmos 2218 Rocket 4.3 13:31:39 10° N 13:37:48 50° E 13:43:52 10° SSE
Okean 3 3.7 13:34:09 10° SSE 13:38:08 47° E 13:42:07 10° NNE
Cosmos 2369 4.0 13:34:17 10° SSW 13:40:00 75° WNW 13:45:41 10° NNE
Okean-O 3.0 13:35:54 10° SSE 13:40:08 46° ENE 13:44:21 10° N
Cosmos 304 Rocket 3.7 13:37:47 10° S 13:42:34 80° ESE 13:47:22 10° NNE
CENTAUR R/B 2.3 13:37:46 10° S 13:42:46 51° ESE 13:48:22 10° NE
Fermi 4.0 13:39:19 10° WSW 13:43:26 74° NNW 13:47:34 10° ENE
Cosmos 1980 Rocket 2.2 13:38:24 10° S 13:44:02 77° ESE 13:49:40 10° NNE
IUS-13 SRM-1 4.4 13:44:40 10° NW 13:46:54 21° NNE 13:51:42 10° ENE
Ariane H10 4.0 13:42:03 10° WSW 13:47:24 21° SSW 13:50:13 10° SSE
ARGOS 3.2 13:45:54 10° S 13:51:15 84° WSW 13:56:39 10° NNW
Centaur D-1AR AC-36 2.1 13:52:50 10° WNW 13:56:22 46° N 13:59:59 10° E
H-2A R/B 3.4 13:51:50 10° S 13:56:38 40° W 14:01:34 10° NNW
Iridium 51 4.3 13:54:13 10° NNE 13:57:36 43° E 14:00:54 10° SSE
CSL-04 Rocket 4.0 13:53:57 10° SSE 13:59:12 49° ENE 14:04:30 10° N
Cosmos 2221 Rocket 4.3 13:55:12 10° SSE 13:59:13 32° E 14:03:11 10° NNE
Genesis I 3.8 13:56:12 10° S 13:59:32 32° ESE 14:02:56 10° NE
Cosmos 1238 Rocket 4.4 13:57:33 10° NNW 14:00:05 26° W 14:02:47 10° SSW
Cosmos 1908 Rocket 3.5 13:58:13 10° N 14:02:33 87° W 14:06:52 10° S
Cosmos 1689 Rocket 3.5 14:01:29 10° N 14:04:08 39° WNW 14:06:48 10° SSW
HJ-1C 4.1 14:03:30 10° S 14:06:43 52° W 14:09:56 10° NNW
FALCON 9 DEB 3.5 14:05:21 10° SSW 14:08:34 40° SE 14:11:48 10° NE
SAR-Lupe-4 3.7 14:05:43 10° N 14:09:17 75° WNW 14:12:50 10° SSW
ERS-2 2.0 14:06:22 10° NNE 14:09:59 66° E 14:13:36 10° S
Cosmos 2366 rocket 4.1 14:03:41 10° N 14:10:03 82° W 14:16:23 10° S
BREEZE-M R/B 2.7 14:15:40 10° WNW 14:17:59 42° SW 14:19:21 23° S
Cosmos 1624 Rocket 3.9 14:17:37 10° S 14:22:56 81° ESE 14:28:14 10° NNE
GPS 2-12 Rocket1 3.8 14:19:11 10° W 14:23:16 37° SSW 14:25:06 25° SSE
BREEZE-M DEB (TANK) 2.6 14:19:28 10° SW 14:24:00 52° NW 14:26:24 10° NNE
OAO 3 Copernicus 4.3 14:19:08 10° WNW 14:24:09 76° SSW 14:26:47 28° SE
ASTRO E2 2.5 14:20:59 10° SW 14:24:56 74° SSE 14:27:30 21° ENE
Cosmos 2219 3.2 14:20:20 10° NNW 14:26:05 76° ENE 14:29:58 21° SSE
Cosmos 1356 Rocket 3.6 14:22:42 10° NNW 14:26:45 67° W 14:30:10 14° S
CSL-04 Debris 4.4 14:23:48 10° S 14:29:08 69° WSW 14:34:30 10° NNW
Hubble Space Telescope 2.1 14:27:41 10° NW 14:31:22 31° NNE 14:33:17 21° ENE
Cosmos 1805 3.7 14:28:28 10° NNE 14:32:05 37° E 14:32:19 37° E
Cosmos 2297 Rocket 2.3 14:26:38 10° NNW 14:32:16 76° WSW 14:36:30 18° S
Atlas Centaur 2 1.4 14:30:52 10° WNW 14:34:48 73° SSW 14:36:19 40° SE
Cosmos 2227 Rocket 2.1 14:30:01 10° NNW 14:35:40 82° ENE 14:38:53 27° SSE
BREEZE M DEB (TANK) 4.0 14:37:19 10° NNE 14:37:19 10° NNE 14:37:19 10° NNE
Cosmos 1674 Rocket 3.7 14:37:12 38° SE 14:38:29 52° E 14:42:46 10° NNE
Cosmos 1782 Rocket 4.0 14:35:02 10° NNW 14:39:16 58° W 14:42:36 16° S
Yuri Rocket 4.0 14:33:26 10° WSW 14:39:17 83° SSE 14:47:39 10° ENE
Meteor 1-12 Rocket 4.2 14:34:39 10° N 14:40:19 83° W 14:44:39 18° S
NOSS 3-2 (C) 4.0 14:36:40 10° SW 14:41:46 50° WNW 14:47:13 10° NNE
USA 234 4.4 14:39:58 13° S 14:45:13 36° SW 14:51:07 10° WNW
NATO 3D Rocket 3.9 14:41:54 10° WNW 14:46:28 49° N 14:49:05 25° ENE
Cosmos 1452 Rocket 4.2 14:47:53 34° E 14:47:53 34° E 14:51:52 10° NE
Cosmos 1300 Rocket 3.4 14:44:31 10° N 14:48:46 61° E 14:49:06 58° ESE
Cosmos 2251 Rocket 3.4 14:45:39 10° NNW 14:50:57 89° ENE 14:52:56 40° SSE
Cosmos 1733 3.4 14:47:53 10° N 14:51:15 55° NE 14:51:15 55° NE
Cosmos 2056 Rocket 4.5 14:47:17 10° SSW 14:52:10 46° WNW 14:57:09 10° N
Cosmos 2285 Rocket 3.9 14:46:29 10° S 14:52:54 83° ESE 14:59:20 10° NNE
SEDSat Delta rocket 3.8 14:48:09 10° WNW 14:52:58 51° SSW 14:54:15 42° SSE
Sich 1 Rocket 3.4 14:49:27 10° N 14:53:49 82° E 14:54:29 63° SSE
Timation 1 Rocket 4.3 14:51:49 10° NNW 14:57:49 87° WSW 15:00:02 41° SSE
Helios 1A Rocket 4.0 14:59:13 29° SSW 15:00:45 41° W 15:04:36 10° NNW
Cosmos 1400 Rocket 3.9 14:57:34 10° N 14:59:57 33° NNE 14:59:57 33° NNE
Cosmos 614 Rocket 3.9 14:58:22 10° NNW 15:03:35 86° WSW 15:04:41 57° S
SL-16 R/B 2.2 14:59:16 10° SSW 15:04:54 79° WNW 15:10:34 10° NNE
Meteor 1-21 4.1 15:05:03 52° SSE 15:06:29 75° E 15:12:08 10° N
OBJECT-B 2.5 15:07:41 29° W 15:07:41 29° W 15:10:21 10° NW
Kakehashi 4.4 14:57:08 10° WNW 15:07:48 48° SW 15:09:43 37° S
Cosmos 2360 Rocket 3.6 15:11:14 23° NE 15:11:14 23° NE 15:13:34 10° NE
Cosmos 2322 Rocket 2.0 15:06:14 36° S 15:08:39 82° ESE 15:14:21 10° NNE
Cosmos 292 Rocket 3.7 15:07:44 52° SSW 15:08:54 82° WNW 15:13:45 10° N
Meteor 2-20 4.3 15:10:08 60° SE 15:10:48 64° E 15:16:49 10° NNE
Resurs 1-3 3.7 15:12:39 70° N 15:12:39 70° N 15:16:32 10° N
CZ-3C R/B 4.2 15:06:27 10° W 15:12:09 48° S 15:19:25 34° SE
CZ-3C R/B 4.2 15:06:27 10° W 15:12:09 48° S 15:19:24 34° SE
Cosmos 2082 3.6 15:09:21 10° NNW 15:15:05 89° ENE 15:15:43 72° SSE
Cosmos 407 Rocket 3.9 15:10:10 10° N 15:14:33 49° NE 15:14:33 49° NE
SPOT 3 Rocket 4.5 15:20:19 35° NE 15:20:19 35° NE 15:23:49 10° N
Cosmos 2237 4.3 15:25:05 63° NE 15:25:05 63° NE 15:29:53 10° NNE
IUS-12 SRM-1 4.1 15:11:31 10° WNW 15:25:10 58° N 15:25:51 53° NE
USA 215 3.2 15:23:27 10° NE 15:29:59 83° NW 15:36:31 10° SW
Aurora 2 Rocket 3.8 15:28:11 10° WNW 15:38:00 85° SSW 15:38:50 74° SE
Cosmos 839 Rocket 4.4 15:32:08 10° NNW 15:40:40 65° ENE 15:40:48 65° ENE
Resurs 01 Rocket 3.3 15:47:35 30° NNW 15:47:35 30° NNW 15:49:52 10° NNW
Ariane Rocket 4.1 15:46:43 38° W 15:46:43 38° W 15:51:11 10° NNW
ATLAS 2A CENTAUR R/B 3.1 15:54:04 10° WSW 16:11:41 67° NNW 16:11:41 67° NNW
Hubble Space Telescope 4.0 16:08:33 10° WNW 16:08:35 10° WNW 16:08:35 10° WNW
Cosmos 2263 Rocket 3.6 16:09:33 10° NNW 16:12:40 34° NNW 16:12:40 34° NNW
ATLAS 3B R/B 4.1 16:44:24 30° NNW 16:44:24 30° NNW 16:47:53 10° N
Chandra Rocket (1) 4.2 20:39:34 57° E 20:39:34 57° E 20:43:37 10° ENE
ATLAS 5 CENTAUR R/B 4.0 20:34:31 52° WNW 20:39:25 83° N 21:51:27 10° ESE
Cosmos 2369 Rocket 4.3 20:34:51 10° N 20:37:04 22° NNE 20:37:04 22° NNE
ADEOS II 4.4 20:39:32 10° N 20:40:52 18° N 20:40:52 18° N
ADEOS Rocket 3.9 20:55:59 56° E 20:56:29 57° ENE 21:03:38 10° N
SL-16 R/B 4.2 21:09:41 23° NNW 21:09:41 23° NNW 21:11:53 10° NNW
IDEFIX/ARIANE 42P 4.3 21:01:36 10° NNE 21:04:02 29° NNE 21:04:02 29° NNE
ARIANE 5 R/B 4.2 21:03:59 10° NNE 21:06:51 29° ENE 21:06:51 29° ENE
CZ-4C R/B 3.8 21:15:44 23° ENE 21:15:44 23° ENE 21:17:59 10° NE
CZ-2C R/B 4.5 21:17:49 10° NE 21:21:16 20° E 21:21:27 20° ESE
CZ-4B R/B 4.2 21:26:30 10° NNE 21:30:32 52° NE 21:30:32 52° NE
CZ-2C R/B 4.0 21:44:17 10° E 21:44:17 10° E 21:44:17 10° E
Cosmos 2266 Rocket 4.1 21:42:22 60° SE 21:43:19 69° E 21:49:24 10° N
Cosmos 1655 Rocket 3.8 21:49:18 79° SSW 21:49:44 86° W 21:55:57 10° N
ASC 2 Rocket 4.3 21:53:06 33° NNW 21:53:17 34° N 21:57:03 10° ENE
Lacrosse 4 Rocket 4.4 21:52:22 10° NNE 21:54:33 14° ENE 21:56:44 10° E
Cosmos 1932 4.5 21:48:38 10° NNW 21:54:48 76° ENE 22:00:59 10° SSE
PAYLOAD A 4.3 21:52:14 10° NNE 21:57:19 65° ESE 21:58:13 54° SSE
Cosmos 1782 3.4 21:59:42 10° N 22:02:59 55° NNE 22:02:59 55° NNE
ASTEX 1 3.7 22:07:18 53° NW 22:07:18 53° NW 22:11:23 10° NNW
Centaur AC-125 4.4 22:09:48 13° N 22:10:28 14° NNE 22:12:29 10° NE
CZ-2C R/B 2.9 22:10:06 10° NNE 22:13:45 70° E 22:13:45 70° E
Cosmos 773 Rocket 4.0 22:14:22 45° S 22:16:00 77° ESE 22:21:17 10° NNE
GPS 2-17 Rocket1 3.4 22:16:02 48° NW 22:17:04 62° N 22:21:44 10° E
IUS-18 SRM-1 4.1 22:20:05 40° SW 22:21:35 46° SSW 22:42:45 10° SE
Cosmos 1328 Rocket 3.6 22:18:15 10° N 22:22:36 79° E 22:24:32 33° SSE
USA 281 3.1 22:16:54 10° SSE 22:23:24 67° WSW 22:29:55 10° NNW
Cosmos 2150 Rocket 4.3 22:20:48 10° N 22:25:59 67° ENE 22:31:15 10° SSE
OAO 3 Rocket 3.2 22:26:54 50° W 22:27:57 66° NNW 22:32:44 10° NE
Cosmos 44 3.3 22:28:28 39° SSW 22:30:21 85° ESE 22:35:37 10° NNE
Cosmos 1812 3.1 22:26:40 10° N 22:30:26 62° E 22:32:58 20° SSE
Cosmos 2084 Rocket 3.4 22:30:27 53° WNW 22:30:33 53° WNW 22:34:24 10° NNE
Cosmos 1271 Rocket 2.5 22:31:26 10° N 22:35:10 85° W 22:36:40 35° S
Cosmos 2315 Rocket 4.5 22:29:44 10° N 22:35:50 60° E 22:41:56 10° SSE
Sich 1 4.4 22:34:52 10° SSE 22:38:51 37° E 22:42:52 10° NNE
BLOCK DM-SL R/B 4.2 22:41:48 17° S 22:41:48 17° S 22:43:44 10° SSE
Cosmos 1833 Rocket 2.7 22:38:33 31° SW 22:41:14 65° WNW 22:46:49 10° N
ALOS 2.2 22:38:26 10° N 22:43:05 74° WNW 22:45:48 25° SSW
Cosmos 1125 Rocket 3.5 22:41:05 10° NNW 22:46:21 87° ENE 22:51:38 10° SSE
ARIANE 5 R/B 4.3 22:44:51 10° NW 22:47:11 14° WNW 22:47:11 14° WNW
Cosmos 1515 Rocket 3.6 22:44:12 10° N 22:48:38 85° E 22:53:04 10° S
ASTRO E2 2.6 22:47:49 29° W 22:49:38 60° SSW 22:53:32 10° SE
Cosmos 2082 Rocket 2.4 22:49:36 11° S 22:54:53 72° ESE 23:00:28 10° NNE
GPS 2-18 Rocket1 3.2 22:56:58 28° W 22:58:42 53° SSW 23:02:23 10° ESE
Cosmos 1151 Rocket 4.2 22:55:59 10° NW 22:59:13 21° W 22:59:22 21° W
CZ-2C R/B 3.6 22:55:26 10° NNW 22:59:18 24° WNW 23:00:50 20° WSW
CZ-4C R/B 3.7 23:00:55 12° WNW 23:02:16 13° NW 23:04:24 10° NNW
Tianhe-1 3.7 23:01:58 10° NW 23:02:59 11° NNW 23:03:59 10° NNW
Mugunghwa Rocket 4.3 23:00:35 20° WSW 23:05:39 82° SSE 23:13:19 10° ENE
COSMOS 2406 3.8 23:02:19 20° SW 23:05:40 37° WNW 23:10:52 10° N
SL-08 R/B 4.2 23:03:52 19° SW 23:05:47 26° W 23:09:37 10° NW
FENGYUN 3A 4.4 23:06:01 10° NNW 23:10:51 34° WNW 23:14:54 14° SW
Cosmos 1805 Rocket 4.1 23:16:47 11° SSW 23:20:40 36° W 23:24:42 10° NNW
CZ-2C R/B 1.8 23:18:32 13° W 23:21:01 33° NNW 23:23:58 10° NE
Cosmos 1484 Rocket 3.7 23:18:14 10° NNW 23:21:27 29° WNW 23:24:26 11° SW
Cosmos 1500 4.3 23:24:18 10° SSE 23:27:52 45° E 23:31:25 10° NNE
BREEZE-M DEB (TANK) 2.7 23:25:43 10° WNW 23:28:32 32° SW 23:30:45 10° SSE
BLOCK DM-SL R/B 4.4 23:15:35 11° WSW 23:29:31 23° SSW 23:34:01 10° SSE
Lacrosse 4 Rocket 2.5 23:29:54 10° NW 23:33:02 22° WSW 23:36:11 10° SSW
Meteor 1-31 Rocket 2.7 23:31:56 10° N 23:35:45 71° WNW 23:39:32 10° SSW
Cosmos 1602 3.9 23:32:09 10° SSW 23:35:54 50° W 23:39:40 10° N
ADEOS 3.6 23:32:51 10° N 23:38:04 82° WNW 23:43:16 10° SSW
CZ-4C R/B 4.0 23:35:18 10° SSE 23:38:23 48° ENE 23:41:34 10° N
Centaur D-1A AC-32 3.0 23:39:09 10° WSW 23:42:47 81° SSE 23:54:36 10° ENE
SJ-12 4.0 23:38:55 10° N 23:42:52 55° WNW 23:46:49 10° SSW
Cosmos 1818 4.2 23:41:32 10° SW 23:46:34 40° WNW 23:51:39 10° N
